Location: *
(2.5500°S, 65.9667°W)
Time: 06:33:54
(UTC+00:00)

Tiros 1 despin weight - Pass Details

Date: 14 April 2024
Orbit: 578 x 621 km, 48.2° (Epoch: 25 May)

Event Time Altitude Azimuth Distance (km) Brightness Sun altitude
Rises 16:44:37 0° 239° (WSW) 2,796 ? 76.7°
Reaches altitude 10° 16:47:10 10° 252° (WSW) 1,900 ? 76.4°
Maximum altitude 16:50:48 26° 309° (NW) 1,172 ? 76.0°
Drops below altitude 10° 16:54:28 10° 6° (N) 1,914 ? 75.5°
Sets 16:57:04 0° 19° (NNE) 2,821 ? 75.2°
